Flag for Norway Weather past 2 weeks in Nærbø, Norway

Now
46 °F

Cool.


Feels Like: 40 °F
Forecast: 44 / 52 °F
Wind: 13 mph from South

Location: Obrestad

Current Time: May 3, 2015 at 1:50:37 PM

Latest Report: May 3, 2015 at 1:00 PM


Visibility: N/A

Pressure: 29.82 "Hg

Humidity: 69%

Dew point: 36 °F

Location of NærbøLocation

Historic Weather in Nærbø — Graph

°F

Nærbø temperature yesterday

Maximum temperature yesterday: 46 °F (at 4:00 PM)
Minimum temperature yesterday: 37 °F (at 5:00 AM)
Average temperature yesterday: 42 °F

Past Weeks' High & Low Weather Summary

 TemperatureHumidityPressure
High54 °F (Apr 19, 11:00 AM)100% (Apr 21, 1:00 AM)30.46 "Hg (Apr 21, 1:00 AM)
Low33 °F (Apr 28, 6:00 AM)46% (Apr 19, 11:00 AM)29.32 "Hg (Apr 25, 1:00 PM)
Average43 °F83%29.92 "Hg
* Reported Apr 18 1:00 PM — May 3 12:00 Noon, Nærbø, Weather by CustomWeather, © 2015

Note: Actual official high and low records may vary slightly from our data, if they occured in-between our weather recording intervals... More about our weather records

Advertising

Nærbø weather history for previous 24 hours

 ConditionsComfort  
Time TempWeatherWind HumidityBarometerVisibility
12:00 PM
Sun, May 3
46 °FCool.12 mph72%29.82 "HgN/A
11:00 AM45 °FQuite cool.12 mph73%29.83 "HgN/A
10:00 AM44 °FQuite cool.9 mph75%29.84 "HgN/A
9:00 AM45 °FQuite cool.7 mph64%29.85 "HgN/A
8:00 AM43 °FQuite cool.6 mph65%29.85 "HgN/A
7:00 AM40 °FQuite cool.5 mph68%29.85 "HgN/A
6:00 AM35 °FChilly.2 mph76%29.85 "HgN/A
4:00 AM35 °FChilly.3 mph80%29.86 "HgN/A
3:00 AM35 °FChilly.3 mph86%29.85 "HgN/A
2:00 AM37 °FChilly.3 mph85%29.86 "HgN/A
1:00 AM39 °FChilly.2 mph81%29.86 "HgN/A
12:00 AM41 °FQuite cool.3 mph81%29.87 "HgN/A
11:00 PM
Sat, May 2
42 °FQuite cool.3 mph81%29.86 "HgN/A
10:00 PM41 °FQuite cool.6 mph83%29.87 "HgN/A
9:00 PM44 °FQuite cool.8 mph81%29.86 "HgN/A
8:00 PM45 °FQuite cool.9 mph78%29.85 "HgN/A
7:00 PM45 °FCool.10 mph73%29.85 "HgN/A
6:00 PM46 °FCool.10 mph70%29.86 "HgN/A
5:00 PM46 °FCool.10 mph75%29.86 "HgN/A
4:00 PM46 °FCool.9 mph71%29.87 "HgN/A
3:00 PM45 °FQuite cool.9 mph71%29.87 "HgN/A
2:00 PM44 °FQuite cool.9 mph70%29.87 "HgN/A
1:00 PM44 °FQuite cool.10 mph69%29.86 "HgN/A
Weather by CustomWeather, © 2015

See weather overviewHow to use our weather pages